Location: Unspecified
(0.0000°N, 0.0000°E)
Time: 03:41:45
(UTC+00:00)

Vanguard 2 - Pass Details

Date: 16 December 2018
Orbit: 553 x 2939 km, 32.9° (Epoch: 16 January)

Event Time Altitude Azimuth Distance (km) Brightness Sun altitude
Rises 15:28:08 0° 239° (WSW) 3,866 12.2 33.4°
Reaches altitude 10° 15:31:21 10° 241° (WSW) 2,584 11.8 32.7°
Maximum altitude 15:37:03 69° 324° (NW) 717 8.0 31.5°
Drops below altitude 10° 15:41:08 10° 48° (NE) 1,876 9.1 30.6°
Sets 15:43:10 0° 50° (NE) 2,716 9.8 30.1°
